K7NDG Weather Reports


time (UTC)temp
C
wind
direction
speed
KPH
gust
KPH
rain 1hr
cm
rain 24hr
cm
rain mn
cm
humidity
%
barometer
mb
20260504202718 21 297 1.6 11.3 0.00 0.00 0.00 60 1013.0
20260504202215 21 249 8.0 12.9 0.00 0.00 0.00 59 1013.1
20260504201712 22 119 1.6 4.8 0.00 0.00 0.00 60 1013.0
20260504201209 21 266 6.4 6.4 0.00 0.00 0.00 60 1013.1
20260504200707 21 246 1.6 9.7 0.00 0.00 0.00 61 1013.1
20260504200203 21 222 3.2 9.7 0.00 0.00 0.00 61 1013.3
20260504195659 21 251 8.0 14.5 0.00 0.00 0.00 63 1012.9
20260504195155 21 192 0.0 8.0 0.00 0.00 0.00 63 1013.1
20260504194653 21 253 3.2 9.7 0.00 0.00 0.00 62 1013.0
20260504194148 21 266 4.8 9.7 0.00 0.00 0.00 63 1013.2
20260504193645 21 243 3.2 11.3 0.00 0.00 0.00 63 1013.2
20260504193143 21 283 12.9 12.9 0.00 0.00 0.00 65 1012.9
20260504192641 20 186 0.0 6.4 0.00 0.00 0.00 65 1013.2
20260504192139 20 255 0.0 11.3 0.00 0.00 0.00 65 1013.2
20260504191637 20 238 8.0 8.0 0.00 0.00 0.00 64 1013.2
20260504191133 20 237 3.2 4.8 0.00 0.00 0.00 65 1013.2
20260504190629 20 115 3.2 8.0 0.00 0.00 0.00 66 1013.3
20260504190126 20 265 8.0 9.7 0.00 0.00 0.00 66 1013.5
20260504185622 20 221 3.2 9.7 0.00 0.00 0.00 64 1013.4
20260504185119 20 263 1.6 9.7 0.00 0.00 0.00 65 1013.5
20260504184615 19 206 1.6 8.0 0.00 0.00 0.00 68 1013.5
20260504184110 18 218 3.2 8.0 0.00 0.00 0.00 69 1013.5
20260504183607 18 261 1.6 8.0 0.00 0.00 0.00 69 1013.5
20260504183105 18 260 3.2 11.3 0.00 0.00 0.00 70 1013.5
20260504182602 18 228 3.2 6.4 0.00 0.00 0.00 68 1013.8
20260504182100 18 196 3.2 9.7 0.00 0.00 0.00 70 1013.7
20260504181556 18 274 3.2 8.0 0.00 0.00 0.00 69 1013.6
20260504181054 17 262 6.4 6.4 0.00 0.00 0.00 72 1013.7
20260504180552 17 212 1.6 9.7 0.00 0.00 0.00 72 1013.6
20260504180052 17 268 0.0 11.3 0.00 0.00 0.00 73 1013.5
20260504175548 16 207 3.2 8.0 0.00 0.00 0.00 74 1013.6
20260504175045 16 252 0.0 3.2 0.00 0.00 0.00 74 1013.8
20260504174543 16 259 3.2 4.8 0.00 0.00 0.00 74 1013.7
20260504174040 16 197 0.0 8.0 0.00 0.00 0.00 75 1013.7
20260504173537 16 192 3.2 3.2 0.00 0.00 0.00 75 1013.4
20260504173034 16 249 1.6 9.7 0.00 0.00 0.00 75 1013.4
20260504172530 15 192 0.0 3.2 0.00 0.00 0.00 75 1013.5
20260504172027 15 234 4.8 6.4 0.00 0.00 0.00 77 1013.6
20260504171524 15 250 4.8 8.0 0.00 0.00 0.00 76 1013.5
20260504171021 15 274 3.2 8.0 0.00 0.00 0.00 77 1013.6
20260504170516 15 282 3.2 9.7 0.00 0.00 0.00 78 1013.6
20260504160437 13 290 0.0 4.8 0.00 0.00 0.00 82 1013.2
20260504150901 13 306 0.0 3.2 0.00 0.00 0.00 85 1012.8
20260504150358 13 301 0.0 4.8 0.00 0.00 0.00 85 1012.7
20260504141327 12 12 0.0 8.0 0.00 0.00 0.00 87 1012.6
20260504140824 12 258 1.6 4.8 0.00 0.00 0.00 87 1012.4
20260504140319 12 253 4.8 8.0 0.00 0.00 0.00 87 1012.5
20260504130748 12 258 4.8 6.4 0.00 0.00 0.00 87 1011.9
20260504130244 12 265 1.6 9.7 0.00 0.00 0.00 87 1011.6
20260504120208 11 282 0.0 3.2 0.00 0.00 0.00 87 1011.2
20260504110635 12 282 0.0 3.2 0.00 0.00 0.00 84 1010.8
20260504110131 12 294 1.6 4.8 0.00 0.00 0.00 84 1010.9
20260504100551 12 297 0.0 1.6 0.00 0.00 0.00 83 1010.5
20260504081945 13 343 0.0 1.6 0.00 0.00 0.00 75 1009.6
20260504081442 13 343 0.0 1.6 0.00 0.00 0.00 75 1009.6
20260504080938 13 349 1.6 1.6 0.00 0.00 0.00 74 1009.7
20260504080435 13 335 0.0 3.2 0.00 0.00 0.00 74 1009.7
20260504070403 15 331 0.0 3.2 0.00 0.00 0.00 71 1009.4
20260504050750 18 33 0.0 0.0 0.00 0.00 0.00 59 1009.4
20260504050247 18 33 0.0 0.0 0.00 0.00 0.00 59 1009.1
20260504045744 18 33 0.0 0.0 0.00 0.00 0.00 59 1009.2
20260504045239 18 33 0.0 0.0 0.00 0.00 0.00 58 1008.9
20260504044737 18 33 0.0 0.0 0.00 0.00 0.00 57 1009.1
20260504044234 19 33 0.0 3.2 0.00 0.00 0.00 56 1009.1
20260504043731 19 35 0.0 0.0 0.00 0.00 0.00 56 1009.1
20260504043228 19 35 0.0 0.0 0.00 0.00 0.00 56 1009.1
20260504042726 20 35 0.0 0.0 0.00 0.00 0.00 55 1009.1
20260504042222 20 35 0.0 0.0 0.00 0.00 0.00 55 1009.0
20260504041718 20 35 0.0 0.0 0.00 0.00 0.00 55 1009.1
20260504041214 20 35 0.0 0.0 0.00 0.00 0.00 55 1008.9
20260504040711 20 35 0.0 0.0 0.00 0.00 0.00 55 1008.9
20260504040208 20 35 0.0 0.0 0.00 0.00 0.00 54 1008.9
20260504035704 21 35 0.0 0.0 0.00 0.00 0.00 54 1008.8
20260504035202 21 35 0.0 0.0 0.00 0.00 0.00 53 1008.6
20260504034659 21 35 0.0 0.0 0.00 0.00 0.00 53 1008.6
20260504034156 22 35 0.0 0.0 0.00 0.00 0.00 52 1008.6
20260504033654 22 35 0.0 0.0 0.00 0.00 0.00 52 1008.7
20260504033151 22 102 0.0 0.0 0.00 0.00 0.00 51 1008.6
20260504032647 23 102 0.0 0.0 0.00 0.00 0.00 50 1008.5
20260504032145 23 102 0.0 0.0 0.00 0.00 0.00 49 1008.5
20260504031642 23 267 0.0 0.0 0.00 0.00 0.00 48 1008.5
20260504031138 24 267 0.0 0.0 0.00 0.00 0.00 46 1008.5
20260504030635 25 267 0.0 0.0 0.00 0.00 0.00 46 1008.6
20260504030131 25 267 0.0 0.0 0.00 0.00 0.00 44 1008.5
20260504025628 26 267 0.0 0.0 0.00 0.00 0.00 44 1008.6
20260504025125 26 267 0.0 0.0 0.00 0.00 0.00 44 1008.5
20260504024622 26 232 0.0 0.0 0.00 0.00 0.00 43 1008.3
20260504024119 27 232 0.0 0.0 0.00 0.00 0.00 42 1008.3
20260504023616 27 232 0.0 0.0 0.00 0.00 0.00 41 1008.4
20260504023111 27 232 0.0 1.6 0.00 0.00 0.00 41 1008.3
20260504022608 27 232 0.0 4.8 0.00 0.00 0.00 41 1008.3
20260504022104 27 252 0.0 3.2 0.00 0.00 0.00 40 1008.4
20260504021602 28 206 0.0 6.4 0.00 0.00 0.00 41 1008.1
20260504021058 28 253 3.2 3.2 0.00 0.00 0.00 40 1008.3
20260504020555 28 169 0.0 3.2 0.00 0.00 0.00 34 1008.1
20260504020051 28 186 0.0 1.6 0.00 0.00 0.00 34 1008.2
20260504015548 29 278 0.0 4.8 0.00 0.00 0.00 33 1008.1
20260504015044 29 252 0.0 4.8 0.00 0.00 0.00 33 1008.4
20260504014540 29 26 0.0 4.8 0.00 0.00 0.00 33 1008.4
20260504014038 29 192 0.0 4.8 0.00 0.00 0.00 34 1008.4
20260504013535 29 229 3.2 8.0 0.00 0.00 0.00 33 1008.5
20260504013032 30 267 0.0 4.8 0.00 0.00 0.00 34 1008.5
20260504012530 30 2 0.0 3.2 0.00 0.00 0.00 33 1008.5
20260504012028 30 244 0.0 4.8 0.00 0.00 0.00 35 1008.6
20260504011524 30 206 0.0 3.2 0.00 0.00 0.00 39 1008.6
20260504011020 30 282 4.8 6.4 0.00 0.00 0.00 39 1008.6
20260504010516 30 164 3.2 4.8 0.00 0.00 0.00 39 1008.7
20260504010012 30 241 1.6 8.0 0.00 0.00 0.00 38 1008.7
20260504005509 30 218 3.2 6.4 0.00 0.00 0.00 38 1008.7
20260504005006 30 240 3.2 9.7 0.00 0.00 0.00 37 1008.6
20260504004504 30 182 0.0 3.2 0.00 0.00 0.00 38 1008.7
20260504004001 30 1 0.0 4.8 0.00 0.00 0.00 37 1008.8
20260504003457 31 210 3.2 8.0 0.00 0.00 0.00 36 1008.8
20260504002954 31 246 1.6 4.8 0.00 0.00 0.00 36 1008.7
20260504002451 31 237 3.2 4.8 0.00 0.00 0.00 36 1009.0
20260504001948 31 204 1.6 3.2 0.00 0.00 0.00 35 1009.1
20260504001446 31 192 4.8 6.4 0.00 0.00 0.00 34 1008.8
20260504000942 31 192 0.0 8.0 0.00 0.00 0.00 34 1008.7
20260504000439 31 187 0.0 3.2 0.00 0.00 0.00 34 1009.0
20260503235936 31 140 3.2 4.8 0.00 0.00 0.00 35 1009.2
20260503235434 31 206 1.6 3.2 0.00 0.00 0.00 35 1009.0
20260503234931 31 192 1.6 6.4 0.00 0.00 0.00 35 1009.1
20260503234429 31 204 1.6 3.2 0.00 0.00 0.00 36 1009.2
20260503233927 31 258 0.0 6.4 0.00 0.00 0.00 35 1009.2
20260503233423 31 121 3.2 4.8 0.00 0.00 0.00 34 1009.3
20260503232919 31 181 6.4 6.4 0.00 0.00 0.00 34 1009.2
20260503232416 31 133 3.2 4.8 0.00 0.00 0.00 36 1009.3
20260503231914 31 267 1.6 4.8 0.00 0.00 0.00 36 1009.3
20260503231411 31 180 1.6 4.8 0.00 0.00 0.00 37 1009.5
20260503230908 31 102 3.2 8.0 0.00 0.00 0.00 33 1009.5
20260503230404 31 210 0.0 6.4 0.00 0.00 0.00 37 1009.7
20260503225902 31 227 1.6 4.8 0.00 0.00 0.00 38 1009.7
20260503225358 31 44 3.2 4.8 0.00 0.00 0.00 35 1009.9
20260503224854 31 123 1.6 6.4 0.00 0.00 0.00 37 1009.7
20260503224351 30 173 0.0 8.0 0.00 0.00 0.00 36 1009.9
20260503223849 30 135 1.6 9.7 0.00 0.00 0.00 36 1010.0
20260503223347 30 185 3.2 8.0 0.00 0.00 0.00 37 1010.0
20260503222842 30 237 4.8 8.0 0.00 0.00 0.00 36 1010.2
20260503222341 30 97 3.2 4.8 0.00 0.00 0.00 36 1010.5
20260503221838 30 108 0.0 4.8 0.00 0.00 0.00 37 1010.3
20260503221337 30 121 6.4 8.0 0.00 0.00 0.00 36 1010.3
20260503220832 30 185 0.0 6.4 0.00 0.00 0.00 36 1010.4
20260503220330 30 192 4.8 6.4 0.00 0.00 0.00 34 1010.6
20260503215826 30 186 1.6 6.4 0.00 0.00 0.00 37 1010.8
20260503215324 30 192 4.8 6.4 0.00 0.00 0.00 37 1010.7
20260503214821 30 142 4.8 6.4 0.00 0.00 0.00 34 1010.9
20260503214318 30 102 0.0 4.8 0.00 0.00 0.00 37 1010.9
20260503213816 30 174 1.6 6.4 0.00 0.00 0.00 37 1010.7
20260503213313 30 159 3.2 8.0 0.00 0.00 0.00 36 1011.1
20260503212810 29 195 4.8 6.4 0.00 0.00 0.00 37 1010.8
20260503212308 29 136 4.8 6.4 0.00 0.00 0.00 38 1011.2
20260503211805 29 89 3.2 6.4 0.00 0.00 0.00 37 1011.0
20260503211302 29 110 4.8 8.0 0.00 0.00 0.00 37 1011.1
20260503210801 28 195 3.2 4.8 0.00 0.00 0.00 36 1011.4
20260503210259 28 135 1.6 6.4 0.00 0.00 0.00 38 1011.1
20260503205754 28 127 3.2 9.7 0.00 0.00 0.00 37 1011.2
20260503205251 28 100 8.0 9.7 0.00 0.00 0.00 35 1011.3
20260503204748 28 138 4.8 8.0 0.00 0.00 0.00 40 1011.4
20260503204245 28 170 3.2 6.4 0.00 0.00 0.00 42 1011.5
20260503203743 28 129 6.4 6.4 0.00 0.00 0.00 39 1011.5
20260503203240 27 240 3.2 8.0 0.00 0.00 0.00 39 1011.6